Flag for France Weather past 2 weeks in Boulogne-Billancourt, France

Now
63 °F

Light rain. Passing clouds.


Feels Like: 63 °F
Forecast: 51 / 68 °F
Wind: 8 mph from North

Location: Paris-Orly

Current Time: Sep 1, 2015 at 4:41:48 AM

Latest Report: Sep 1, 2015 at 4:00 AM


Visibility: N/A

Pressure: 29.89 "Hg

Humidity: 88%

Dew point: 59 °F

Location of Boulogne-BillancourtLocation

Historic Weather in Boulogne-Billancourt — Graph

°F

Boulogne-Billancourt temperature yesterday

Maximum temperature yesterday: 82 °F (at 12:30 PM)
Minimum temperature yesterday: 66 °F (at 6:00 AM)
Average temperature yesterday: 74 °F

Past Weeks' High & Low Weather Summary

 TemperatureHumidityPressure
High91 °F (Aug 30, 5:00 PM)100% (Aug 21, 4:00 AM)30.21 "Hg (Aug 21, 4:00 AM)
Low52 °F (Aug 18, 6:30 AM)29% (Aug 22, 3:00 PM)29.45 "Hg (Aug 24, 1:30 PM)
Average68 °F69%29.96 "Hg
* Reported Aug 17 3:00 AM — Sep 1 3:30 AM, Boulogne-Billancourt, Weather by CustomWeather, © 2015

Note: Actual official high and low records may vary slightly from our data, if they occured in-between our weather recording intervals... More about our weather records

Advertising

Boulogne-Billancourt weather history for previous 24 hours

 ConditionsComfort  
Time TempWeatherWind HumidityBarometerVisibility
3:30 AM
Tue, Sep 1
64 °FLight rain. Passing clouds.10 mph83%29.89 "HgN/A
3:00 AM64 °FLight rain. Passing clouds.9 mph78%29.89 "HgN/A
2:30 AM64 °FLight rain. Passing clouds.7 mph78%29.92 "HgN/A
2:00 AM64 °FPassing clouds.12 mph83%29.92 "HgN/A
1:30 AM66 °FPassing clouds.9 mph78%29.92 "HgN/A
1:00 AM66 °FPassing clouds.10 mph78%29.92 "HgN/A
11:30 PM
Mon, Aug 31
68 °FPassing clouds.12 mph78%29.89 "HgN/A
11:00 PM68 °FPassing clouds.10 mph83%29.89 "HgN/A
10:30 PM68 °FPartly cloudy.12 mph83%29.89 "HgN/A
10:00 PM70 °FPassing clouds.13 mph78%29.89 "HgN/A
9:30 PM72 °FPartly sunny.9 mph78%29.89 "HgN/A
9:00 PM72 °FPartly sunny.10 mph78%29.89 "HgN/A
8:30 PM73 °FPartly sunny.9 mph74%29.89 "HgN/A
8:00 PM75 °FPartly sunny.12 mph69%29.86 "HgN/A
7:30 PM75 °FPartly sunny.9 mph69%29.86 "HgN/A
7:00 PM77 °FPartly sunny.12 mph69%29.86 "HgN/A
6:30 PM79 °FPartly sunny.12 mph58%29.86 "HgN/A
6:00 PM81 °FScattered clouds.14 mph58%29.86 "HgN/A
5:30 PM82 °FScattered clouds.15 mph51%29.86 "HgN/A
5:00 PM81 °FScattered clouds.16 mph58%29.86 "HgN/A
4:30 PM81 °FScattered clouds.16 mph58%29.86 "HgN/A
4:00 PM82 °FPartly sunny.12 mph55%29.86 "HgN/A
3:30 PM82 °FPartly sunny.15 mph55%29.86 "HgN/A
3:00 PM82 °FPassing clouds.14 mph55%29.86 "HgN/A
2:30 PM81 °FPassing clouds.13 mph58%29.86 "HgN/A
2:00 PM79 °FPassing clouds.8 mph58%29.86 "HgN/A
1:30 PM79 °FPartly sunny.9 mph58%29.86 "HgN/A
1:00 PM79 °FPartly sunny.14 mph58%29.86 "HgN/A
12:30 PM82 °FPassing clouds.12 mph51%29.83 "HgN/A
12:00 PM81 °FPassing clouds.13 mph51%29.86 "HgN/A
11:30 AM81 °FPassing clouds.12 mph54%29.83 "HgN/A
11:00 AM79 °FSunny.13 mph54%29.83 "Hg10 mi
10:30 AM77 °FSunny.12 mph57%29.83 "Hg10 mi
10:00 AM75 °FSunny.8 mph65%29.86 "Hg10 mi
9:30 AM73 °FPassing clouds.6 mph69%29.86 "HgN/A
9:00 AM72 °FSunny.7 mph78%29.86 "Hg10 mi
8:30 AM70 °FPassing clouds.3 mph83%29.86 "HgN/A
8:00 AM70 °FClear.2 mph83%29.86 "Hg10 mi
7:30 AM66 °FClear.2 mph88%29.86 "Hg10 mi
7:00 AM68 °FClear.1 mph83%29.86 "Hg10 mi
6:30 AM68 °FPassing clouds.7 mph88%29.89 "HgN/A
6:00 AM66 °FClear.2 mph88%29.86 "Hg10 mi
5:30 AM68 °FClear.2 mph88%29.86 "Hg10 mi
5:00 AM68 °FClear.1 mph83%29.89 "Hg10 mi
4:30 AM68 °FClear.2 mph88%29.89 "Hg10 mi
4:00 AM68 °FClear.3 mph88%29.89 "Hg10 mi
Weather by CustomWeather, © 2015

See weather overviewHow to use our weather pages